ROMMA est une association bénévole à but non lucratif. Votre soutien est indispensable : ADHERER à ROMMA ou FAIRE un DON

Chambon - (38, Isère)

Oisans (2460 m)   Longitude: 06° 10' 42" E   Latitude: 45° 01' 32" N Station partenaire n°803
 

Détail journalier du     <<     >>

Température Humidité Vent Dir Rafale Dir. rafale Neige 1 Neige 2
Heure (°C) (%) (km/h) (km/h) (cm) (cm)
01:00 0.09522SO45OSO158209
02:00 -0.39924SO42SO158210
03:00 -0.310020SO41OSO158210
04:00 -0.110020OSO56OSO158210
05:00 -0.110024OSO55OSO158210
06:00 -0.210017SO35OSO159210
07:00 -0.410019SO32SO159210
08:00 -0.710020SO33SO159210
09:00 -1.19923SO38SO159210
10:00 -0.49121SO39SO159210
11:00 -0.18926SO53SO159210
12:00 -0.29129SO52SO158210
13:00 0.97421SO41SO158210
14:00 0.17721SO49SO158210
15:00 -1.09221SO49SO158210
16:00 -1.09318SO43SO158210
17:00 -1.79814SO38SO158210
18:00 -1.88418SO35SO158210
19:00 -2.59419SO36SO158210
20:00 -2.69912SO27SO158212
21:00 -3.49911SO25SO158212
22:00 -4.39917SO27SO159213
23:00 -5.19815SO26SO159213
minuit -6.0989SO25SO159213

Graphique du 10-03-2019

 

Serveur OMMA